Regional Weather Roundup
Issued by NWS

Home | Current Version | Previous Version | Graphics & Text | Print | Product List | Glossary On
Versions: 1 2 3 4 5 6 7 8 9 10 11 12 13 14 15 16 17 18 19 20 21 22 23 24 25 26 27 28 29 30 31 32 33 34 35 36 37 38 39 40 41 42 43 44 45 46 47 48 49 50
949
ASUS43 KFSD 111002
RWRSD

WEATHER ROUNDUP FOR SOUTH DAKOTA
NATIONAL WEATHER SERVICE SIOUX FALLS SD
400 AM CST MON DEC 11 2017

NOTE: "FAIR" INDICATES FEW OR NO CLOUDS BELOW 12,000 FEET WITH NO
SIGNIFICANT WEATHER AND/OR OBSTRUCTIONS TO VISIBILITY.


SDZ001>005-009-010-012>017-111100-
NORTHWEST AND NORTH CENTRAL SOUTH DAKOTA

CITY           SKY/WX    TMP DP  RH WIND       PRES   REMARKS
BUFFALO          N/A     42  22  44 NW36G49   30.06R
FAITH            N/A     41  23  48 NW30G48   30.05R
MOBRIDGE       CLOUDY    42  29  59 NW26G37   29.91R
$$

SDZ012>016-024>037-041>051-057-063-072>074-111100-
SOUTHWEST AND SOUTH CENTRAL SOUTH DAKOTA

CITY           SKY/WX    TMP DP  RH WIND       PRES   REMARKS
RAPID CTY ARPT CLOUDY    48  15  26 NW32G44   30.16R
PIERRE         CLEAR     45  25  45 NW43G54   29.99R
CUSTER         CLOUDY    41  13  31 NW16G29   30.16F
ELLSWORTH AFB  CLOUDY    47  14  26 NW31G43   30.14S
PHILIP         CLOUDY    48  18  30 NW25G40   30.07S
PINE RIDGE     CLOUDY    35  20  54 CALM      30.18F
SPEARFISH      FAIR      43  18  36 W18G26    30.23S
WINNER         FAIR      47  18  31 W18       30.01S
$$

SDZ004>011-016>023-039-040-111100-
NORTHEAST SOUTH DAKOTA

CITY           SKY/WX    TMP DP  RH WIND       PRES   REMARKS
ABERDEEN       CLOUDY    41  27  57 NW26G36   29.82S
WATERTOWN      PTCLDY    37  25  61 W20G29    29.76F
BROOKINGS      PTCLDY    32  24  72 NW13      29.80F WCI  22
SISSETON         N/A     42  27  55 W22G32    29.72S
$$

SDZ017-020-022-023-036>040-048>070-111100-
SOUTHEAST SOUTH DAKOTA

CITY           SKY/WX    TMP DP  RH WIND       PRES   REMARKS
SIOUX FALLS    CLOUDY    34  26  72 W9        29.83F WCI  27
HURON          PTCLDY    40  25  55 NW28G39   29.86R
CHAMBERLAIN    CLEAR     45  23  41 W23G31    29.96S
MITCHELL       PTCLDY    41  23  48 W18G25    29.89F
YANKTON        CLOUDY    41  21  44 W16       29.90F
$$

ABBREVIATIONS USED IN REMARKS
   TC - TEMPERATURE IN CELSIUS
  WCI - WIND CHILL INDEX
   HX - HEAT INDEX
  VSB - VISIBILITY





USA.gov is the U.S. government's official web portal to all federal, state and local government web resources and services.